Weather Roundup
Issued by NWS Chicago, IL

Home | Current Version | Previous Version | Text Only | Print | Product List | Glossary Off
Versions: 1 2 3 4 5 6 7 8 9 10 11 12 13 14 15 16 17 18 19 20 21 22 23 24 25 26 27 28 29 30 31 32 33 34 35 36 37 38 39 40 41 42 43 44 45 46 47 48 49 50

000
NZUS59 KLOT 251010
HRRLOT

CHICAGO AREA WEATHER ROUNDUP
NATIONAL WEATHER SERVICE CHICAGO/ROMEOVILLE IL
400 AM CST THU DEC 25 2014

NOTE: "FAIR" INDICATES FEW OR NO CLOUDS BELOW 12,000 FEET WITH NO
SIGNIFICANT WEATHER AND/OR OBSTRUCTIONS TO VISIBILITY.

* THESE STATIONS ARE NOT UNDER NWS QUALITY CONTROL. THEY ALSO MAY NOT
  REPORT WEATHER SUCH AS PRECIPITATION OR FOG.

ILZ005-006-012>014-019>023-251100-
NORTHEAST ILLINOIS

CITY           SKY/WX    TMP DP  RH WIND       PRES   REMARKS
OHARE          CLOUDY    35  29  78 W13       29.77R WCI  26
MIDWAY         CLOUDY    37  31  78 W10       29.79R
AURORA         CLOUDY    34  29  82 W13       29.80R WCI  25
LANSING*       CLOUDY    35  31  87 W16       29.81R WCI  25
JOLIET*        CLOUDY    32  29  86 SW7       29.82R WCI  26
WAUKEGAN       CLOUDY    35  27  72 W8        29.74R WCI  29
DUPAGE AIRPORT CLOUDY    34  30  85 W12       29.79R WCI  25
WHEELING       CLOUDY    36  28  73 W15G22    29.78R
KANKAKEE*      CLOUDY    33  30  88 W12       29.84R WCI  25
MORRIS*        CLOUDY    33  31  93 W8        29.82R WCI  26
LEWIS AIRPORT* CLOUDY    32  31  93 W12       29.81R WCI  23
NORTHERLY IS     N/A     37  30  76 W8          N/A
$$

WIZ051-052-058>065-066-070>072-251100-
SOUTHEAST WISCONSIN

CITY           SKY/WX    TMP DP  RH WIND       PRES   REMARKS
MILWAUKEE      MOCLDY    36  27  69 W13G21    29.72R
KENOSHA*       CLOUDY    35  28  75 W14       29.74R WCI  26
RACINE*        CLOUDY    36  28  73 W13       29.74R
BURLINGTON     CLOUDY    33  28  81 W12G20    29.74R WCI  24
WAUKESHA       CLOUDY    32  28  86 W10G20    29.72R WCI  24
WEST BEND      CLOUDY    34  28  80 W12       29.69R WCI  25
$$

INZ001>003-010>013-019-020-251100-
NORTHWEST INDIANA

CITY           SKY/WX    TMP DP  RH WIND       PRES   REMARKS
GARY*          NOT AVBL
MICHIGAN CITY* NOT AVBL
RENSSELAER*    NOT AVBL
VALPARAISO     CLOUDY    35  32  88 W12       29.79R WCI  27
$$

LMZ740>746-251100-
SOUTHERN LAKE MICHIGAN

STATION/POSITION TIME  SKY/WX   TEMP WIND        PRES    VSBY
                                AIR  DIR/SP/G
                 (UTC)          (F)  (DEG/KT/KT) (MB)    (MI)
HARRISON CRIB    1000            36  270/ 20/ 23   N/A
BURNHAM HARBOR   1000            36  230/  9/ 15   N/A
CALUMET HARBOR   1000            37  240/  7/ 12 1007.3R
BURNS HARBOR     NOT AVBL
MICHIGAN CITY    1000            37  230/ 26/ 29   N/A
$$

ABBREVIATIONS USED IN REMARKS
   TC - TEMPERATURE IN CELSIUS
  WCI - WIND CHILL INDEX
   HX - HEAT INDEX
  VSB - VISIBILITY
$$


USA.gov is the U.S. government's official web portal to all federal, state and local government web resources and services.